Rock Hill, SC

5:10 AM EST on December 16, 2017 (GMT -0500)
Rock Hill-York County-Bryant

Weather History for KUZA - January, 2013

Change the Weather History Date:

Saturday, January 12, 2013

  Actual Average Record
Temperature  
Mean Temperature 62 °F -  
Max Temperature 73 °F 48 °F 73 °F (2013)
Min Temperature 51 °F 29 °F 10 °F (1981)
Degree Days  
Heating Degree Days 3    
Growing Degree Days 12 (Base 50)    
Moisture  
Dew Point 56 °F    
Average Humidity 92    
Maximum Humidity 100    
Minimum Humidity 61    
Precipitation  
Precipitation 0.00 in - - ()
Sea Level Pressure  
Sea Level Pressure 30.14 in    
Wind  
Wind Speed 4 mph (SW)    
Max Wind Speed 13 mph    
Max Gust Speed -    
Visibility 5 miles    
Events Fog    
Averages and records for this station are not official NWS values.
T = Trace of Precipitation, MM = Missing Value Source: NWS Daily Summary

Daily Weather History Graph

Daily Weather History Graph

Search for Another Location

Airport or City:

Trip Planner

Search our weather history database for the weather conditions in past years. The results will help you decide how hot, cold, wet, or windy it might be!

Date:

Astronomy

Jan. 12, 2013 Rise Set
Actual Time 7:32 AM EST 5:33 PM EST
Civil Twilight 7:04 AM EST 6:00 PM EST
Nautical Twilight 6:33 AM EST 6:32 PM EST
Astronomical Twilight 6:03 AM EST 7:02 PM EST
Moon 7:54 AM EST (1/12) 6:55 PM EST (1/12)
Length of Visible Light 10h 56m
Length of Day
10h 01m
New Moon, 1% of the Moon is Illuminated
Jan 12
New Moon
Jan 18
First Quarter
Jan 26
Full
Feb 3
Last Quarter
Feb 10
New

Hourly Weather History & Observations

Time (EST) Temp. Dew Point Humidity Pressure Visibility Wind Dir Wind Speed Gust Speed Precip Events Conditions
12:33 AM 51.1 °F 51.1 °F 100% 30.16 in 1.8 mi Calm Calm - N/A   Overcast
12:39 AM 51.1 °F 51.1 °F 100% 30.16 in 0.5 mi Calm Calm - N/A Fog Fog
12:54 AM 52.0 °F 52.0 °F 100% 30.16 in 0.2 mi Calm Calm - N/A Fog Fog
1:54 AM 51.1 °F 51.1 °F 100% 30.16 in 0.2 mi Calm Calm - N/A Fog Fog
2:54 AM 51.1 °F 51.1 °F 100% 30.16 in 0.2 mi Calm Calm - N/A Fog Fog
3:54 AM 51.1 °F 51.1 °F 100% 30.15 in 0.2 mi Calm Calm - N/A Fog Fog
4:54 AM 53.1 °F 53.1 °F 100% 30.13 in 0.2 mi SSW 4.6 mph - N/A Fog Fog
5:37 AM 53.1 °F 53.1 °F 100% 30.14 in 0.8 mi SW 5.8 mph - N/A   Mist
5:47 AM 54.0 °F 54.0 °F 100% 30.14 in 0.5 mi SW 6.9 mph - N/A Fog Fog
5:54 AM 54.0 °F 54.0 °F 100% 30.13 in 0.5 mi SW 5.8 mph - N/A Fog Fog
6:54 AM 54.0 °F 54.0 °F 100% 30.15 in 0.2 mi SW 6.9 mph - N/A Fog Fog
7:54 AM 55.9 °F 55.9 °F 100% 30.17 in 0.2 mi SW 6.9 mph - N/A Fog Fog
8:17 AM 55.9 °F 55.9 °F 100% 30.16 in 1.0 mi WSW 6.9 mph - N/A   Overcast
8:27 AM 57.0 °F 57.0 °F 100% 30.17 in 3.0 mi SW 8.1 mph - N/A   Overcast
8:54 AM 57.9 °F 57.9 °F 100% 30.18 in 5.0 mi WSW 8.1 mph - N/A   Mostly Cloudy
9:01 AM 57.9 °F 57.9 °F 100% 30.18 in 5.0 mi WSW 9.2 mph - N/A   Partly Cloudy
9:54 AM 60.1 °F 60.1 °F 100% 30.18 in 5.0 mi SW 8.1 mph - N/A   Clear
10:54 AM 64.9 °F 62.1 °F 90% 30.16 in 9.0 mi WSW 8.1 mph - N/A   Clear
11:54 AM 68.0 °F 61.0 °F 78% 30.14 in 10.0 mi WSW 12.7 mph - N/A   Clear
12:54 PM 72.0 °F 61.0 °F 68% 30.12 in 10.0 mi WSW 8.1 mph - N/A   Clear
1:54 PM 73.0 °F 61.0 °F 66% 30.12 in 10.0 mi SW 12.7 mph - N/A   Clear
2:54 PM 73.0 °F 59.0 °F 61% 30.12 in 10.0 mi WSW 6.9 mph - N/A   Clear
3:54 PM 72.0 °F 60.1 °F 66% 30.12 in 10.0 mi WSW 5.8 mph - N/A   Clear
4:54 PM 71.1 °F 60.1 °F 68% 30.12 in 10.0 mi SW 6.9 mph - N/A   Unknown
5:54 PM 66.9 °F 60.1 °F 79% 30.11 in 10.0 mi SSW 5.8 mph - N/A   Clear
6:54 PM 66.0 °F 59.0 °F 78% 30.10 in 10.0 mi SSW 3.5 mph - N/A   Clear
8:54 PM 57.9 °F 57.9 °F 100% 30.11 in 8.0 mi Calm Calm - N/A   Clear
9:54 PM 55.9 °F 55.9 °F 100% 30.11 in 4.0 mi Calm Calm - N/A   Clear
10:54 PM 55.9 °F 55.9 °F 100% 30.10 in 6.0 mi Calm Calm - N/A   Clear
11:54 PM 57.9 °F 57.0 °F 97% 30.09 in 8.0 mi South 3.5 mph - N/A   Clear